• In Uzbekistan
  • List of Countries
  • For 7 days
  • Water Temperature
  • Satellite Maps
  • Weather Map
  • Weather Widgets
  • user-avatar
    Login

    Hourly Weather Astana

    Today, 22 August, Wednesday

    Time Temperature Precipitation Wind Pressure Humidity
    00:00 +11°C° 0.2 mm 8 mps 722 mmHg 80%
    01:00 +11°C° 0.2 mm 8 mps 722 mmHg 80%
    02:00 +11°C° 0.2 mm 8 mps 723 mmHg 81%
    03:00 +10°C° 0 mm 8 mps 723 mmHg 82%
    04:00 +10°C° 0 mm 7 mps 723 mmHg 84%
    05:00 +10°C° 0 mm 7 mps 724 mmHg 85%
    06:00 +11°C° 0 mm 7 mps 724 mmHg 80%
    07:00 +12°C° 0 mm 8 mps 724 mmHg 75%
    08:00 +13°C° 0 mm 8 mps 725 mmHg 70%
    09:00 +15°C° 0 mm 8 mps 725 mmHg 63%
    10:00 +16°C° 0 mm 8 mps 725 mmHg 57%
    11:00 +18°C° 0 mm 8 mps 725 mmHg 50%
    12:00 +20°C° 0 mm 8 mps 726 mmHg 49%
    13:00 +21°C° 0 mm 8 mps 726 mmHg 49%
    14:00 +22°C° 0 mm 8 mps 726 mmHg 48%
    15:00 +22°C° 0 mm 7 mps 725 mmHg 50%
    16:00 +22°C° 0 mm 7 mps 725 mmHg 52%
    17:00 +22°C° 0 mm 6 mps 725 mmHg 55%
    18:00 +20°C° 0 mm 5 mps 725 mmHg 60%
    19:00 +19°C° 0 mm 3 mps 725 mmHg 66%
    20:00 +18°C° 0 mm 2 mps 725 mmHg 72%
    21:00 +17°C° 0 mm 2 mps 725 mmHg 75%
    22:00 +17°C° 0 mm 2 mps 725 mmHg 78%
    23:00 +16°C° 0 mm 2 mps 725 mmHg 80%

    Tomorrow, 23 August, Thursday

    Time Temperature Precipitation Wind Pressure Humidity
    00:00 +16°C° 0 mm 3 mps 725 mmHg 83%
    01:00 +16°C° 0 mm 3 mps 725 mmHg 85%
    02:00 +16°C° 0 mm 3 mps 725 mmHg 87%
    03:00 +14°C° 0 mm 3 mps 725 mmHg 89%
    04:00 +14°C° 0 mm 3 mps 725 mmHg 91%
    05:00 +14°C° 0 mm 3 mps 725 mmHg 92%
    06:00 +17°C° 0 mm 4 mps 725 mmHg 86%
    07:00 +18°C° 0 mm 4 mps 725 mmHg 80%
    08:00 +20°C° 0 mm 4 mps 725 mmHg 73%
    09:00 +22°C° 0.2 mm 5 mps 725 mmHg 65%
    10:00 +24°C° 0.2 mm 6 mps 725 mmHg 57%
    11:00 +26°C° 0.2 mm 6 mps 726 mmHg 48%
    12:00 +27°C° 0 mm 6 mps 725 mmHg 45%
    13:00 +28°C° 0 mm 6 mps 725 mmHg 43%
    14:00 +28°C° 0 mm 6 mps 725 mmHg 40%
    15:00 +28°C° 0 mm 6 mps 725 mmHg 40%
    16:00 +28°C° 0 mm 5 mps 725 mmHg 40%
    17:00 +27°C° 0 mm 4 mps 725 mmHg 40%
    18:00 +26°C° 0 mm 3 mps 725 mmHg 44%
    19:00 +24°C° 0 mm 2 mps 725 mmHg 49%
    20:00 +22°C° 0 mm 1 mps 725 mmHg 54%
    21:00 +22°C° 0 mm 1 mps 725 mmHg 54%
    22:00 +20°C° 0 mm 2 mps 725 mmHg 54%
    23:00 +20°C° 0 mm 2 mps 724 mmHg 53%

    Day after tomorrow, 24 August, Friday

    Time Temperature Precipitation Wind Pressure Humidity
    00:00 +20°C° 0 mm 3 mps 724 mmHg 54%
    01:00 +19°C° 0 mm 3 mps 724 mmHg 54%
    02:00 +19°C° 0 mm 4 mps 723 mmHg 54%
    03:00 +19°C° 0 mm 4 mps 723 mmHg 54%
    04:00 +19°C° 0 mm 4 mps 723 mmHg 53%
    05:00 +19°C° 0 mm 4 mps 722 mmHg 53%
    06:00 +20°C° 0.2 mm 5 mps 722 mmHg 53%
    07:00 +21°C° 0.2 mm 5 mps 722 mmHg 53%
    08:00 +21°C° 0.2 mm 5 mps 722 mmHg 53%
    09:00 +22°C° 0.1 mm 5 mps 722 mmHg 50%
    10:00 +23°C° 0.1 mm 6 mps 722 mmHg 47%
    11:00 +24°C° 0.1 mm 6 mps 722 mmHg 45%
    12:00 +23°C° 0.3 mm 5 mps 722 mmHg 48%
    13:00 +22°C° 0.3 mm 4 mps 722 mmHg 51%
    14:00 +22°C° 0.3 mm 4 mps 721 mmHg 54%
    15:00 +21°C° 1.1 mm 4 mps 721 mmHg 60%
    16:00 +20°C° 1.1 mm 5 mps 721 mmHg 66%
    17:00 +19°C° 1.1 mm 6 mps 721 mmHg 72%
    18:00 +16°C° 1.2 mm 5 mps 721 mmHg 77%
    19:00 +15°C° 1.2 mm 4 mps 721 mmHg 83%
    20:00 +14°C° 1.2 mm 3 mps 721 mmHg 88%
    21:00 +13°C° 0.2 mm 3 mps 721 mmHg 89%
    22:00 +13°C° 0.2 mm 3 mps 721 mmHg 90%
    23:00 +12°C° 0.2 mm 3 mps 721 mmHg 92%

    25 August, Saturday

    Time Temperature Precipitation Wind Pressure Humidity
    00:00 +12°C° 0 mm 3 mps 721 mmHg 91%
    01:00 +11°C° 0 mm 3 mps 721 mmHg 91%
    02:00 +11°C° 0 mm 3 mps 721 mmHg 91%
    03:00 +10°C° 0 mm 3 mps 721 mmHg 91%
    04:00 +10°C° 0 mm 3 mps 721 mmHg 91%
    05:00 +10°C° 0 mm 3 mps 721 mmHg 91%
    06:00 +10°C° 0.1 mm 2 mps 722 mmHg 87%
    07:00 +12°C° 0.1 mm 2 mps 722 mmHg 83%
    08:00 +13°C° 0.1 mm 2 mps 722 mmHg 79%
    09:00 +14°C° 0.3 mm 2 mps 722 mmHg 72%
    10:00 +14°C° 0.3 mm 3 mps 722 mmHg 66%
    11:00 +16°C° 0.3 mm 3 mps 722 mmHg 60%
    12:00 +16°C° 0.4 mm 3 mps 722 mmHg 58%
    13:00 +17°C° 0.4 mm 3 mps 722 mmHg 55%
    14:00 +17°C° 0.4 mm 3 mps 722 mmHg 53%
    15:00 +17°C° 0.3 mm 3 mps 722 mmHg 53%
    16:00 +17°C° 0.3 mm 3 mps 722 mmHg 52%
    17:00 +17°C° 0.3 mm 3 mps 722 mmHg 52%
    18:00 +16°C° 0.4 mm 2 mps 722 mmHg 57%
    19:00 +15°C° 0.4 mm 2 mps 722 mmHg 63%
    20:00 +14°C° 0.4 mm 2 mps 722 mmHg 68%
    21:00 +14°C° 0.3 mm 2 mps 722 mmHg 69%
    22:00 +13°C° 0.3 mm 2 mps 722 mmHg 71%
    23:00 +13°C° 0.3 mm 2 mps 722 mmHg 72%

    26 August, Sunday

    Time Temperature Precipitation Wind Pressure Humidity
    00:00 +13°C° 0 mm 2 mps 721 mmHg 73%
    01:00 +12°C° 0 mm 2 mps 721 mmHg 75%
    02:00 +12°C° 0 mm 2 mps 721 mmHg 77%
    03:00 +10°C° 0.1 mm 2 mps 721 mmHg 77%
    04:00 +10°C° 0.1 mm 2 mps 721 mmHg 78%
    05:00 +10°C° 0.1 mm 2 mps 721 mmHg 79%
    06:00 +12°C° 0 mm 2 mps 722 mmHg 74%
    07:00 +13°C° 0 mm 2 mps 722 mmHg 70%
    08:00 +14°C° 0 mm 2 mps 722 mmHg 65%
    09:00 +16°C° 0 mm 3 mps 722 mmHg 59%
    10:00 +17°C° 0 mm 3 mps 722 mmHg 54%
    11:00 +18°C° 0 mm 4 mps 722 mmHg 48%
    12:00 +18°C° 0.2 mm 4 mps 722 mmHg 48%
    13:00 +18°C° 0.2 mm 4 mps 721 mmHg 47%
    14:00 +19°C° 0.2 mm 5 mps 721 mmHg 47%
    15:00 +18°C° 0.4 mm 4 mps 721 mmHg 49%
    16:00 +18°C° 0.4 mm 4 mps 721 mmHg 52%
    17:00 +18°C° 0.4 mm 3 mps 721 mmHg 55%
    18:00 +16°C° 0.5 mm 3 mps 721 mmHg 62%
    19:00 +14°C° 0.5 mm 3 mps 721 mmHg 69%
    20:00 +13°C° 0.5 mm 3 mps 721 mmHg 76%
    21:00 +13°C° 0.6 mm 3 mps 721 mmHg 80%
    22:00 +13°C° 0.6 mm 3 mps 721 mmHg 83%
    23:00 +12°C° 0.6 mm 3 mps 721 mmHg 86%

    27 August, Monday

    Time Temperature Precipitation Wind Pressure Humidity
    00:00 +13°C° 1.3 mm 2 mps 721 mmHg 88%
    01:00 +13°C° 1.3 mm 2 mps 721 mmHg 90%
    02:00 +13°C° 1.3 mm 2 mps 721 mmHg 92%
    03:00 +12°C° 0.2 mm 2 mps 721 mmHg 93%
    04:00 +12°C° 0.2 mm 2 mps 721 mmHg 93%
    05:00 +12°C° 0.2 mm 2 mps 722 mmHg 93%
    06:00 +13°C° 0 mm 2 mps 722 mmHg 89%
    07:00 +13°C° 0 mm 2 mps 722 mmHg 84%
    08:00 +14°C° 0 mm 2 mps 723 mmHg 80%
    09:00 +15°C° 0 mm 2 mps 723 mmHg 74%
    10:00 +16°C° 0 mm 2 mps 723 mmHg 68%
    11:00 +17°C° 0 mm 3 mps 723 mmHg 62%
    12:00 +18°C° 0.1 mm 3 mps 723 mmHg 58%
    13:00 +19°C° 0.1 mm 4 mps 723 mmHg 53%
    14:00 +20°C° 0.1 mm 4 mps 723 mmHg 49%
    15:00 +20°C° 0 mm 5 mps 722 mmHg 50%
    16:00 +20°C° 0 mm 5 mps 722 mmHg 50%
    17:00 +19°C° 0 mm 5 mps 722 mmHg 50%
    18:00 +18°C° 0 mm 4 mps 722 mmHg 54%
    19:00 +17°C° 0 mm 4 mps 722 mmHg 58%
    20:00 +16°C° 0 mm 3 mps 722 mmHg 62%
    21:00 +16°C° 0.2 mm 3 mps 721 mmHg 65%
    22:00 +14°C° 0.2 mm 4 mps 721 mmHg 68%
    23:00 +14°C° 0.2 mm 4 mps 721 mmHg 71%
    Show more